THORAD DELTA 1 DEB, 8158

Orbit data source: Space-Track

THORAD DELTA 1 DEB, 8158 is space debris in SSO originally from a launch on Fri, 15 Nov 1974 UTC launched from the Air Force Western Test Range (AFWTR). Debris objects in space refer to the collection of defunct objects orbiting the Earth. Examples of debris include non-operational satellites, rocket bodies, and fragments generated from explosions, collisions, or faulty payload assembly.

Loading next visibility...
Identifier
8158, 1974-089Y
Orbit
SSO
Country
Flag of USUS
Related business
Manufacturer
Unknown
Mission
Spacecraft
Bus & Motor
Unknown
Mass
Unknown
Launch date (UTC)
1974-11-15 (51 years ago)
Launch vehicle
Unknown
Launch site
Air Force Western Test Range (AFWTR)
Object type
Payload
Rocket body
Debris
Shape & HBR
Unknown shape, 0.1 m
Radar Cross Section
Small (<0.1 m²)

Expand to show TLE details & history
Last TLE update: 2 days ago

TLE from 2 days ago
0 THORAD DELTA 1 DEB
1 08158U 74089Y   25299.13617140  .00000039  00000-0  46853-3 0  9991
2 08158 101.4351   9.3196 0062324 320.8544 111.8242 12.61653131344212
Epoch: 2025-10-26T03:16Z
TLE epoch observation values (Epoch: 2025-10-26T03:16:05.208Z)
Latitude
69.95977°
Longitude
-107.94945°
Altitude
1,446.399 km
Speed
7.137 km/s
True Right ascension
22h 23m 18s
True Declination
69° 51' 31"
Sunlit
Object was in daylight at epoch
Visualization orbit readout
Latitude
Unknown
Longitude
Unknown
Altitude
Unknown
Speed
Unknown
Apparent Right ascension
Unknown
Apparent Declination
Unknown
Sunlit
N/A
Visualization observer readout
Local Sidereal Time
16:28:52
Azimuth
Unknown
Elevation
Unknown
Doppler factor
Unknown
Orbital elements
Apogee altitude
1,462.203 km
Perigee altitude
1,365.08 km
Semi-major axis
7,791.779 km
Eccentricity
0.00623
Inclination
101.4351°
RAAN
9.3196°
Arg. of periapsis
320.8544°
True anomaly
112.48526°
Mean anomaly
111.8242°
Eccentric anomaly
112.15493°
Mean motion
3.15565 °/min
Orbital period
114.08 mins
BSTAR
0.00046853
Loading maneuver chart data...
Computing Atmospheric mass density...
Loading historical data...
Loading historical data...
Loading historical data...
Loading historical data...
Loading historical data...
Loading historical data...
Loading historical data...

Documentation

Showing up to 5 results
|